User: anonymous   Login
Location: Natural Bridges National Monument
(37.6093°N, 109.9767°W)
Time: 11:31:18
(UTC-06:00)
Language:

Cosmos 1727 Rocket - Orbit

View from above orbital plane
View from above orbital plane
View from above satellite
View from above satellite

Ground track
Ground track

The orbit data is extracted from the following two-line orbital elements,

1 16511U 86008B   15089.53761117  .00000033  00000-0  18451-4 0  9999
2 16511 082.9412 100.3485 0024929 027.6455 146.0757 13.75788439464940
Epoch (UTC): 30 March 2015 12:54:09
Eccentricity: 0.0024929
inclination: 82.9412°
perigee height: 960 km
apogee height: 997 km
right ascension of ascending node: 100.3485°
argument of perigee: 27.6455°
revolutions per day: 13.75788439
mean anomaly at epoch: 146.0757°
orbit number at epoch: 46494

The dashed part of the orbit path shows where the satellite is in the earth's shadow,  

DLR